Location: Calgary
(51.0833°N, 114.0833°W)
Time: 03:30:21
(UTC-07:00)

OTV 5 (USA 277) - Visible Passes

Search period start: 19 February 2019 00:00
Search period end: 01 March 2019 00:00
Orbit: 342 x 346 km, 54.5° (Epoch: 17 February)

Date Brightness Start Highest point End Pass type
(mag) Time Alt. Az. Time Alt. Az. Time Alt. Az.
24 Feb ? 19:37:35 10° S 19:39:16 19° SSE 19:39:16 19° SSE visible
25 Feb ? 20:00:29 10° SW 20:02:37 38° S 20:02:37 38° S visible
26 Feb ? 18:50:05 10° S 18:52:15 20° SE 18:54:24 10° E visible
26 Feb ? 20:24:00 10° WSW 20:25:51 36° WSW 20:25:51 36° WSW visible
27 Feb ? 19:12:56 10° SW 19:15:42 45° SSE 19:17:32 18° E visible
27 Feb ? 20:47:48 10° W 20:48:59 21° W 20:48:59 21° W visible
28 Feb ? 19:36:25 10° WSW 19:39:19 82° NNW 19:40:35 30° ENE visible
28 Feb ? 21:11:42 10° WNW 21:12:01 12° WNW 21:12:01 12° WNW visible
